Weather History for KEEO - October, 2012

Change the Weather History Date:

Sunday, October 28, 2012

  Actual Average Record
Temperature  
Mean Temperature 44 °F 40 °F  
Max Temperature 59 °F 55 °F 72 °F (2001)
Min Temperature 29 °F 25 °F 16 °F (2006)
Degree Days  
Heating Degree Days 21 25  
Month to date heating degree days 559 558  
Since 1 July heating degree days 779 865  
Cooling Degree Days 0 0  
Month to date cooling degree days 0 0  
Year to date cooling degree days 325 172  
Moisture  
Dew Point 28 °F    
Average Humidity 57    
Maximum Humidity 82    
Minimum Humidity 32    
Precipitation  
Precipitation 0.00 in 0.06 in 0.42 in (2002)
Month to date precipitation 0.84 1.67  
Year to date precipitation 7.29 13.29  
Sea Level Pressure  
Sea Level Pressure 30.14 in    
Wind  
Wind Speed 3 mph (NW)    
Max Wind Speed 14 mph    
Max Gust Speed 16 mph    
Visibility 10 miles    
Events      
T = Trace of Precipitation, MM = Missing Value Source: NWS Daily Summary

Daily Weather History Graph

Daily Weather History Graph

Search for Another Location

Airport or City:

Trip Planner

Search our weather history database for the weather conditions in past years. The results will help you decide how hot, cold, wet, or windy it might be!

Date:

Astronomy

Oct. 28, 2012 Rise Set
Actual Time 7:36 AM MDT 6:13 PM MDT
Civil Twilight 7:08 AM MDT 6:41 PM MDT
Nautical Twilight 6:36 AM MDT 7:12 PM MDT
Astronomical Twilight 6:05 AM MDT 7:44 PM MDT
Moon 5:32 PM MDT (10/28) 6:32 AM MDT (10/28)
Length of Visible Light 11h 32m
Length of Day
10h 36m
Waxing Gibbous, 99% of the Moon is Illuminated
Oct 28
Waxing Gibbous
Oct 29
Full
Nov 6
Last Quarter
Nov 13
New
Nov 20
First Quarter

Hourly Weather History & Observations

Time (MDT) Temp. Windchill Dew Point Humidity Pressure Visibility Wind Dir Wind Speed Gust Speed Precip Events Conditions
12:53 AM 39.0 °F - 25.0 °F 57% 30.14 in 10.0 mi Calm Calm - N/A   Overcast
1:53 AM 39.0 °F 36.8 °F 28.0 °F 65% 30.14 in 10.0 mi North 3.5 mph - N/A   Overcast
2:53 AM 37.9 °F - 26.1 °F 62% 30.13 in 10.0 mi Calm Calm - N/A   Overcast
3:53 AM 39.0 °F - 26.1 °F 60% 30.12 in 10.0 mi Calm Calm - N/A   Overcast
4:53 AM 37.9 °F - 26.1 °F 62% 30.13 in 10.0 mi Calm Calm - N/A   Overcast
5:53 AM 36.0 °F - 26.1 °F 67% 30.17 in 10.0 mi Calm Calm - N/A   Mostly Cloudy
6:53 AM 30.9 °F - 25.0 °F 79% 30.22 in 10.0 mi Calm Calm - N/A   Clear
7:53 AM 30.9 °F - 24.1 °F 76% 30.22 in 10.0 mi Calm Calm - N/A   Clear
8:53 AM 37.0 °F 33.3 °F 25.0 °F 62% 30.20 in 10.0 mi Variable 4.6 mph - N/A   Partly Cloudy
9:53 AM 39.9 °F - 25.0 °F 55% 30.20 in 10.0 mi Calm Calm - N/A   Overcast
11:53 AM 50.0 °F - 24.1 °F 36% 30.15 in 10.0 mi NE 3.5 mph - N/A   Partly Cloudy
12:53 PM 53.1 °F - 26.1 °F 35% 30.11 in 10.0 mi Variable 3.5 mph - N/A   Scattered Clouds
1:53 PM 55.0 °F - 27.0 °F 34% 30.07 in 10.0 mi WSW 6.9 mph - N/A   Clear
2:53 PM 57.0 °F - 28.9 °F 34% 30.05 in 10.0 mi WSW 8.1 mph - N/A   Clear
3:53 PM 57.9 °F - 30.0 °F 35% 30.03 in 10.0 mi WNW 3.5 mph - N/A   Clear
4:53 PM 57.9 °F - 30.0 °F 35% 30.04 in 10.0 mi WNW 10.4 mph - N/A   Clear
5:53 PM 55.0 °F - 30.0 °F 38% 30.06 in 10.0 mi NW 5.8 mph - N/A   Clear
6:53 PM 51.1 °F - 30.9 °F 46% 30.12 in 10.0 mi Calm Calm - N/A   Clear
7:53 PM 45.0 °F 43.5 °F 32.0 °F 60% 30.16 in 10.0 mi SW 3.5 mph - N/A   Clear
8:53 PM 42.1 °F - 32.0 °F 67% 30.17 in 10.0 mi Calm Calm - N/A   Clear
9:53 PM 37.9 °F 35.5 °F 32.0 °F 79% 30.19 in 10.0 mi ENE 3.5 mph - N/A   Clear
10:53 PM 39.9 °F 36.7 °F 30.0 °F 68% 30.18 in 10.0 mi ENE 4.6 mph - N/A   Clear
11:53 PM 36.0 °F - 30.0 °F 79% 30.19 in 10.0 mi Calm Calm - N/A   Clear